Powrót do katalogu

NAVSTAR 21

USA 64

AktywnyNawigacjaMEO
NORAD 20830·PAYLOAD·🇺🇸 United States

Wystrzelony Oct 1, 1990 z Cape Canaveral Space Force Station

Loading…

Następne Przeloty (najbliższe 24 godziny)

TLE

Starzejące sięSource: Space-Track

Epoka: Aug 30, 2026, 11:27 UTC

1 20830U 90088A   26242.47722561 -.00000077  00000-0  00000+0 0  9992
2 20830  56.4913   7.3992 0021943 289.9896  69.6589  1.87753091254198

Śledź NAVSTAR 21 w czasie rzeczywistym z AllMySat

Download on the App Store